Погода в Быстром Истоке

Россия / Алтайский край     52°22′16″N   84°23′23″E
темп.,
°C
ветер,
м/с
пор.,
м/с
влажн.,
%
обл.,
%
осадки,
мм/ч
давл.,
гПа
погр.,
м
21 января, чт
чт2101:00−13в3492100 0.0 102198
04:00−9вюв2296100 1.1 102064
07:00−5ююв1198100 2.8 102148
10:00−2юз21095100 0.5 1019499
13:00−2зсз3597100 1.3 1019334
16:00−3сз2397100 0.6 1017227
19:00−4св1198100 1.3 101721
22:00−4в2497100 0.6 1013118
22 января, пт
пт2201:00−4в2497100 1.4 1010140
04:00−3ю0198100 1.3 100726
07:00−2зюз3698100 3.1 1007230
10:00−7з4895100 1.9 1010363
13:00−8з5794100 3.4 1012531
16:00−10з3595100 1.0 1015454
19:00−12зсз3695100 2.2 1018316
22:00−14зсз3696100 1.3 1021371
23 января, сб
сб2301:00−16з51095100 1.9 1026523
04:00−19зсз41294100 0.2 1030400
07:00−24зюз239777 0.2 103223
10:00−20юв239698 0.1 103389
13:00−16вюв239499 0.2 1032141
16:00−15вюв239597 0.2 1032123
19:00−15вюв129798 0.8 103225
22:00−15юв1196100 0.4 103321
24 января, вс
вс2401:00−14ююв2394100 0.5 1032129
04:00−15ююз2586100 0.0 1033140
07:00−14юз3889100 0.1 1033314
10:00−15зсз3796100 0.5 1035503
13:00−18з5793100 0.8 1036563
16:00−20з5893100 0.1 1037622
19:00−26зсз4994100 0.2 1041339
22:00−33з349641 0.0 104459
25 января, пн
пн2501:00−36з239721 0.0 104621
04:00−37зюз229826 0.0 104819
07:00−38зюз229913 0.0 105018
10:00−38зюз119921 0.0 105119
13:00−32зсз019311 0.0 1050131
16:00−30в119353 0.0 1048135
19:00−32вюв239477 0.0 104848
22:00−30в3493100 0.0 104690